Weather Roundup
Issued by NWS Chicago, IL

Home | Current Version | Previous Version | Text Only | Print | Product List | Glossary On
Versions: 1 2 3 4 5 6 7 8 9 10 11 12 13 14 15 16 17 18 19 20 21 22 23 24 25 26 27 28 29 30 31 32 33 34 35 36 37 38 39 40 41 42 43 44 45 46 47 48 49 50
000
NZUS59 KLOT 172310
HRRLOT

CHICAGO AREA WEATHER ROUNDUP
NATIONAL WEATHER SERVICE CHICAGO/ROMEOVILLE IL
600 PM CDT WED SEP 17 2014

NOTE: "FAIR" INDICATES FEW OR NO CLOUDS BELOW 12,000 FEET WITH NO
SIGNIFICANT WEATHER AND/OR OBSTRUCTIONS TO VISIBILITY.

* THESE STATIONS ARE NOT UNDER NWS QUALITY CONTROL. THEY ALSO MAY NOT
  REPORT WEATHER SUCH AS PRECIPITATION OR FOG.

ILZ005-006-012>014-019>023-180000-
NORTHEAST ILLINOIS

CITY           SKY/WX    TMP DP  RH WIND       PRES   REMARKS
OHARE          CLEAR     70  44  39 E13       29.97S
MIDWAY         CLEAR     67  47  48 E10       29.97S
AURORA         SUNNY     71  47  42 CALM      29.97S
LANSING*       CLEAR     65  49  54 NE8       29.97S
JOLIET*        SUNNY     69  46  44 CALM      29.97S
WAUKEGAN       CLEAR     62  47  57 SE7       29.97F
DUPAGE AIRPORT SUNNY     69  49  48 E3        29.97S
WHEELING       CLEAR     66  47  50 E6        29.99S
KANKAKEE*      CLEAR     69  50  51 CALM      29.97S
MORRIS*        SUNNY     70  51  50 CALM      29.96S
LEWIS AIRPORT* SUNNY     69  47  46 CALM      29.97S
NORTHERLY IS     N/A     63  50  62 NE9         N/A
$$

WIZ051-052-058>065-066-070>072-180000-
SOUTHEAST WISCONSIN

CITY           SKY/WX    TMP DP  RH WIND       PRES   REMARKS
MILWAUKEE      PTCLDY    62  48  60 SE14      29.98R
KENOSHA*       CLEAR     63  50  62 SE7       29.98S
RACINE*        CLEAR     63  47  55 S12       29.99F
BURLINGTON     SUNNY     65  47  53 W3        29.97S
WAUKESHA       PTCLDY    64  46  52 NW6       29.98S
WEST BEND      PTCLDY    66  45  45 NW5       29.97S
$$

INZ001>003-010>013-019-020-180000-
NORTHWEST INDIANA

CITY           SKY/WX    TMP DP  RH WIND       PRES   REMARKS
GARY*          CLEAR     64  48  55 E12       29.98S
MICHIGAN CITY* NOT AVBL
RENSSELAER*    NOT AVBL
VALPARAISO     CLEAR     66  50  56 CALM      29.98S
$$

LMZ740>746-180000-
SOUTHERN LAKE MICHIGAN

STATION/POSITION TIME  SKY/WX   TEMP WIND        PRES    VSBY
                                AIR  DIR/SP/G
                 (UTC)          (F)  (DEG/KT/KT) (MB)    (MI)
HARRISON CRIB    2300            62   80/ 11/ 12   N/A
BURNHAM HARBOR   2300            63   60/  7/  9   N/A
CALUMET HARBOR   2300            63   50/  8/ 11 1014.0S
BURNS HARBOR     NOT AVBL
MICHIGAN CITY    2300            62   30/ 10/ 12   N/A
$$

ABBREVIATIONS USED IN REMARKS
   TC - TEMPERATURE IN CELSIUS
  WCI - WIND CHILL INDEX
   HX - HEAT INDEX
  VSB - VISIBILITY
$$


USA.gov is the U.S. government's official web portal to all federal, state and local government web resources and services.